Weather History for Trenton, NJ

Change the Weather History Date:

Sunday, September 8, 2013

  Actual Average Record
Temperature  
Mean Temperature 69 °F 69 °F  
Max Temperature 81 °F 79 °F 95 °F (1939)
Min Temperature 57 °F 60 °F 41 °F (1984)
Degree Days  
Heating Degree Days 0 1  
Month to date heating degree days 6 1  
Since 1 July heating degree days 6 4  
Cooling Degree Days 4 5  
Month to date cooling degree days 46 45  
Year to date cooling degree days 996 901  
Growing Degree Days 22 (Base 50)    
Moisture  
Dew Point 56 °F    
Average Humidity 64    
Maximum Humidity 84    
Minimum Humidity 44    
Precipitation  
Precipitation T in 0.11 in 2.60 in (1894)
Month to date precipitation 0.18 0.94  
Year to date precipitation 32.53 31.92  
Sea Level Pressure  
Sea Level Pressure 29.89 in    
Wind  
Wind Speed 7 mph (NNW)    
Max Wind Speed 17 mph    
Max Gust Speed 23 mph    
Visibility 10 miles    
Events      
T = Trace of Precipitation, MM = Missing Value Source: NWS Daily Summary

Daily Weather History Graph

Daily Weather History Graph

Search for Another Location

Airport:

Trip Planner

Search our weather history database for the weather conditions in past years. The results will help you decide how hot, cold, wet, or windy it might be!

Date:

Astronomy

Sep. 08, 2013 Rise Set
Actual Time 6:33 AM EDT 7:19 PM EDT
Civil Twilight 6:06 AM EDT 7:46 PM EDT
Nautical Twilight 5:33 AM EDT 8:19 PM EDT
Astronomical Twilight 4:59 AM EDT 8:52 PM EDT
Moon 9:49 AM EDT (9/8) 8:52 PM EDT (9/8)
Length of Visible Light 13h 40m
Length of Day
12h 45m
Waxing Crescent, 11% of the Moon is Illuminated
Sep 8
Waxing Crescent
Sep 12
First Quarter
Sep 19
Full
Sep 26
Last Quarter
Oct 4
New

Hourly Weather History & Observations

Time (EDT) Temp. Heat Index Dew Point Humidity Pressure Visibility Wind Dir Wind Speed Gust Speed Precip Events Conditions
12:53 AM 66.9 °F - 57.0 °F 70% 29.90 in 10.0 mi Calm Calm - N/A   Mostly Cloudy
1:53 AM 66.0 °F - 59.0 °F 78% 29.88 in 10.0 mi Calm Calm - 0.00 in   Overcast
2:53 AM 64.0 °F - 57.9 °F 80% 29.88 in 10.0 mi Calm Calm - N/A   Overcast
3:53 AM 64.9 °F - 57.9 °F 78% 29.86 in 10.0 mi Calm Calm - N/A   Overcast
4:53 AM 64.0 °F - 59.0 °F 84% 29.84 in 10.0 mi Calm Calm - N/A   Partly Cloudy
5:53 AM 64.9 °F - 59.0 °F 81% 29.84 in 10.0 mi NW 4.6 mph - N/A   Clear
6:53 AM 64.0 °F - 57.9 °F 80% 29.84 in 10.0 mi SW 4.6 mph - N/A   Clear
7:53 AM 64.9 °F - 59.0 °F 81% 29.86 in 10.0 mi WNW 8.1 mph - N/A   Scattered Clouds
8:53 AM 70.0 °F - 59.0 °F 68% 29.84 in 10.0 mi West 5.8 mph - N/A   Clear
9:53 AM 73.9 °F - 60.1 °F 62% 29.85 in 10.0 mi NNW 6.9 mph 19.6 mph N/A   Partly Cloudy
10:53 AM 77.0 °F - 62.1 °F 60% 29.84 in 10.0 mi NW 6.9 mph - N/A   Partly Cloudy
11:53 AM 79.0 °F - 62.1 °F 56% 29.85 in 10.0 mi WNW 10.4 mph 18.4 mph N/A   Partly Cloudy
12:53 PM 79.0 °F - 63.0 °F 58% 29.84 in 10.0 mi North 11.5 mph 20.7 mph N/A   Scattered Clouds
1:53 PM 78.1 °F - 63.0 °F 60% 29.85 in 10.0 mi NW 10.4 mph - N/A   Mostly Cloudy
2:53 PM 79.0 °F - 60.1 °F 52% 29.85 in 10.0 mi NNW 11.5 mph 18.4 mph N/A   Mostly Cloudy
3:53 PM 81.0 °F 81.3 °F 59.0 °F 47% 29.85 in 10.0 mi North 11.5 mph - N/A   Clear
4:53 PM 81.0 °F 81.3 °F 59.0 °F 47% 29.86 in 10.0 mi North 10.4 mph - N/A   Clear
5:53 PM 78.1 °F - 57.0 °F 48% 29.89 in 10.0 mi North 9.2 mph - N/A   Clear
6:53 PM 73.9 °F - 52.0 °F 46% 29.91 in 10.0 mi North 12.7 mph - N/A   Clear
7:53 PM 69.1 °F - 46.9 °F 45% 29.95 in 10.0 mi North 9.2 mph - N/A   Clear
8:53 PM 66.9 °F - 45.0 °F 45% 30.00 in 10.0 mi North 8.1 mph - N/A   Clear
9:53 PM 64.9 °F - 43.0 °F 45% 30.03 in 10.0 mi North 6.9 mph - N/A   Clear
10:53 PM 63.0 °F - 44.1 °F 50% 30.04 in 10.0 mi North 6.9 mph - N/A   Clear
11:53 PM 61.0 °F - 45.0 °F 56% 30.07 in 10.0 mi North 5.8 mph - N/A   Clear